Location: Milo
(50.5667°N, 112.8833°W)
Time: 07:46:09
(UTC+00:00)

N. Korean satellite - Pass Details

Date: 09 December 2021
Orbit: 446 x 491 km, 97.3° (Epoch: 18 January)

Event Time Altitude Azimuth Distance (km) Brightness Sun altitude
Rises 13:18:43 0° 8° (N) 2,466 10.1 -18.3°
Reaches altitude 10° 13:20:48 10° 3° (N) 1,587 9.0 -18.0°
Maximum altitude 13:24:05 48° 288° (WNW) 594 6.5 -17.5°
Drops below altitude 10° 13:27:20 10° 213° (SSW) 1,575 9.0 -17.0°
Sets 13:29:24 0° 207° (SSW) 2,445 10.0 -16.6°
